Location: Cortos
(40.7190°N, 4.5893°W)
Time: 09:57:02
(UTC+00:00)

NOSS 3-3 (A) - Pass Details

Date: 05 July 2020
Orbit: 825 x 1387 km, 63.4° (Epoch: 03 August)

Event Time Altitude Azimuth Distance (km) Brightness Sun altitude
Rises 22:13:08 0° 221° (SW) 3,385 6.7 -19.8°
Reaches altitude 10° 22:15:30 10° 224° (SW) 2,487 6.0 -20.0°
Maximum altitude 22:21:12 68° 307° (NW) 984 4.2 -20.6°
Drops below altitude 10° 22:27:39 10° 31° (NNE) 2,796 6.8 -21.2°
Sets 22:30:28 0° 34° (NE) 3,838 7.5 -21.4°
